�������C�����ː����j�^�v���󋵏��
Date,Time,Cs137(Bq/L),Cs134(Bq/L),�S��(Bq/L)
2016/12/28,00:00,0.55,0.067,13
2016/12/28,00:10,0.62,0.055,12
2016/12/28,00:20,0.64,0.031,13
2016/12/28,00:30,0.59,0.064,9.2
2016/12/28,00:40,0.59,0.059,9.2
2016/12/28,00:50,0.61,0.055,ND
2016/12/28,01:00,0.62,0.048,9.7
2016/12/28,01:10,0.60,0.056,12
2016/12/28,01:20,0.58,0.069,9.3
2016/12/28,01:30,0.56,0.032,10
2016/12/28,01:40,0.56,0.041,ND
2016/12/28,01:50,0.55,0.040,ND
2016/12/28,02:00,0.53,0.045,ND
2016/12/28,02:10,0.52,0.053,ND
2016/12/28,02:20,0.54,0.047,11
2016/12/28,02:30,0.55,0.073,12
2016/12/28,02:40,0.55,0.065,11
2016/12/28,02:50,0.55,0.067,10
2016/12/28,03:00,0.56,0.072,9.9
2016/12/28,03:10,0.59,0.060,ND
2016/12/28,03:20,0.56,0.062,ND
2016/12/28,03:30,0.57,0.057,ND
2016/12/28,03:40,0.54,0.071,ND
2016/12/28,03:50,0.54,0.063,ND
2016/12/28,04:00,0.53,0.063,ND
2016/12/28,04:10,0.49,0.044,9.6
2016/12/28,04:20,0.50,0.038,8.9
2016/12/28,04:30,0.51,0.036,12
2016/12/28,04:40,0.54,0.068,13
2016/12/28,04:50,0.55,0.068,11
2016/12/28,05:00,0.55,0.068,8.9
2016/12/28,05:10,0.57,0.052,9.5
2016/12/28,05:20,0.58,0.057,10
2016/12/28,05:30,0.58,0.061,8.8
2016/12/28,05:40,0.57,0.033,10
2016/12/28,05:50,0.61,0.064,9.2
2016/12/28,06:00,0.65,0.069,11
2016/12/28,06:10,0.64,0.084,10
2016/12/28,06:20,0.66,0.087,ND
2016/12/28,06:30,0.67,0.093,ND
2016/12/28,06:40,0.70,0.096,ND
2016/12/28,06:50,0.71,0.096,ND
2016/12/28,07:00,0.71,0.10,ND
2016/12/28,07:10,0.77,0.088,9.3
2016/12/28,07:20,0.78,0.089,11
2016/12/28,07:30,0.79,0.091,12
2016/12/28,07:40,0.81,0.087,12
2016/12/28,07:50,0.83,0.080,10
2016/12/28,08:00,0.81,0.082,ND
2016/12/28,08:10,0.80,0.087,ND
2016/12/28,08:20,0.79,0.093,ND
2016/12/28,08:30,0.81,0.093,ND
2016/12/28,08:40,0.79,0.097,ND
2016/12/28,08:50,0.78,0.10,ND
2016/12/28,09:00,0.81,0.088,ND
2016/12/28,09:10,0.80,0.091,ND
2016/12/28,09:20,0.84,0.070,ND
2016/12/28,09:30,0.82,0.069,ND
2016/12/28,09:40,0.83,0.068,ND
2016/12/28,09:50,0.82,0.083,9.2
2016/12/28,10:00,0.81,0.085,ND
2016/12/28,10:10,0.81,0.081,10
2016/12/28,10:20,0.84,0.076,10
2016/12/28,10:30,0.82,0.080,10
2016/12/28,10:40,0.80,0.084,13
2016/12/28,10:50,0.78,0.093,9.7
2016/12/28,11:00,0.76,0.097,13
2016/12/28,11:10,0.78,0.077,9.2
2016/12/28,11:20,0.71,0.095,ND
2016/12/28,11:30,0.71,0.079,ND
2016/12/28,11:40,0.70,0.069,ND
2016/12/28,11:50,0.67,0.065,9.2
2016/12/28,12:00,0.67,0.035,ND
2016/12/28,12:10,0.62,0.062,ND
2016/12/28,12:20,0.60,0.068,ND
2016/12/28,12:30,0.51,0.083,ND
2016/12/28,12:40,0.57,0.067,ND
2016/12/28,12:50,0.58,0.057,ND
2016/12/28,13:00,0.57,0.062,8.9
2016/12/28,13:10,0.57,0.046,ND
2016/12/28,13:20,0.57,0.040,ND
2016/12/28,13:30,0.56,0.032,ND
2016/12/28,13:40,0.54,0.041,ND
2016/12/28,13:50,0.54,0.054,ND
2016/12/28,14:00,0.55,0.045,ND
2016/12/28,14:10,0.53,0.054,ND
2016/12/28,14:20,0.53,0.052,ND
2016/12/28,14:30,0.54,0.058,ND
2016/12/28,14:40,0.54,0.058,ND
2016/12/28,14:50,0.57,0.056,ND
2016/12/28,15:00,0.59,0.060,ND
2016/12/28,15:10,0.59,0.077,ND
2016/12/28,15:20,0.62,0.084,ND
2016/12/28,15:30,0.63,0.088,10
2016/12/28,15:40,0.67,0.087,12
2016/12/28,15:50,0.67,0.089,9.0
2016/12/28,16:00,0.67,0.093,10
2016/12/28,16:10,0.68,0.081,ND
2016/12/28,16:20,0.69,0.087,10
2016/12/28,16:30,0.70,0.087,9.7
2016/12/28,16:40,0.71,0.079,ND
2016/12/28,16:50,0.68,0.082,ND
2016/12/28,17:00,0.65,0.077,ND
2016/12/28,17:10,0.66,0.079,ND
2016/12/28,17:20,0.62,0.077,ND
2016/12/28,17:30,0.61,0.067,ND
2016/12/28,17:40,0.59,0.061,ND
2016/12/28,17:50,0.60,0.032,ND
2016/12/28,18:00,0.65,0.034,ND
2016/12/28,18:10,0.67,0.038,ND
2016/12/28,18:20,0.68,0.063,ND
2016/12/28,18:30,0.71,0.067,ND
2016/12/28,18:40,0.73,0.068,ND
2016/12/28,18:50,0.74,0.071,ND
2016/12/28,19:00,0.85,0.042,ND
2016/12/28,19:10,0.82,0.073,ND
2016/12/28,19:20,0.79,0.088,ND
2016/12/28,19:30,0.76,0.092,ND
2016/12/28,19:40,0.77,0.091,ND
2016/12/28,19:50,0.77,0.096,ND
2016/12/28,20:00,0.72,0.085,ND
2016/12/28,20:10,0.67,0.084,ND
2016/12/28,20:20,0.66,0.066,ND
2016/12/28,20:30,0.63,0.067,ND
2016/12/28,20:40,0.60,0.061,ND
2016/12/28,20:50,0.58,0.057,ND
2016/12/28,21:00,0.67,ND,ND
2016/12/28,21:10,0.55,0.052,ND
2016/12/28,21:20,0.56,0.030,ND
2016/12/28,21:30,0.61,ND,ND
2016/12/28,21:40,0.51,0.059,ND
2016/12/28,21:50,0.57,0.059,ND
2016/12/28,22:00,0.58,0.059,ND
2016/12/28,22:10,0.60,0.054,ND
2016/12/28,22:20,0.64,0.056,ND
2016/12/28,22:30,0.64,0.050,ND
2016/12/28,22:40,0.67,0.057,8.9
2016/12/28,22:50,0.66,0.055,12
2016/12/28,23:00,0.65,0.057,10
2016/12/28,23:10,0.64,0.032,ND
2016/12/28,23:20,0.67,0.044,ND
2016/12/28,23:30,0.70,ND,ND
2016/12/28,23:40,0.66,0.028,ND
2016/12/28,23:50,0.71,ND,ND
